Snowfall_Accumulation
0.0 0.0 0.0 0.0 0.0 0.0 0.0 0.0 0.0 0.0 0.0 0.0 0.0 0.0 0.0 0.0 0.0 0.0 0.0 0.0 0.0 0.0 0.0 0.0 0.0 0.0 0.0 0.0 0.0 0.0 0.0 0.0 0.0 0.0 0.0 0.0 0.0 0.0 0.0 0.0 0.0 0.0 0.0
0.0 0.0 0.0 0.0 0.0 0.0 0.0 0.0 0.0 0.0 0.0 0.0 0.0 0.0 0.0 0.0 0.0 0.0 0.0 0.0 0.0 0.0 0.0 0.0 0.0 0.0 0.0 0.0 0.0 0.0 0.0 0.0 0.0 0.0 0.0 0.0 0.0 0.0 0.0 0.0 0.0 0.0 0.0
0.0 0.0 0.0 0.0 0.0 0.0 0.0 0.0 0.0 0.0 0.0 0.0 0.0 0.0 0.0 0.0 0.0 0.0 0.0 0.0 0.0 0.0 0.0 0.0 0.0 0.0 0.0 0.0 0.0 0.0 0.0 0.0 0.0 0.0 0.0 0.0 0.0 0.0 0.0 0.0 0.0 0.0 0.0
0.0 0.0 0.0 0.0 0.0 0.0 0.0 0.0 0.0 0.0 0.0 0.0 0.0 0.0 0.0 0.0 0.0 0.0 0.0 0.0 0.0 0.0 0.0 0.0 0.1 0.1 0.1 0.1 0.0 0.0 0.0 0.0 0.0 0.0 0.0 0.0 0.0 0.0 0.0 0.0 0.0 0.0 0.0
0.0 0.0 0.0 0.1 0.0 0.0 0.0 0.0 0.0 0.0 0.0 0.0 0.0 0.0 0.0 0.0 0.0 0.0 0.0 0.0 0.0 0.0 0.0 0.0 0.1 0.1 0.2 0.3 0.1 0.1 0.1 0.0 0.0 0.0 0.0 0.0 0.0 0.0 0.0 0.0 0.0 0.0 0.0
0.0 0.0 0.0 0.0 0.0 0.0 0.0 0.0 0.1 0.1 0.0 0.0 0.0 0.0 0.0 0.0 0.0 0.0 0.0 0.0 0.0 0.0 0.1 0.1 0.1 0.1 0.2 0.4 0.3 0.1 0.2 0.1 0.1 0.0 0.0 0.0 0.0 0.0 0.0 0.0 0.0 0.0 0.0
0.0 0.0 0.0 0.0 0.0 0.0 0.2 0.0 0.1 0.2 0.1 0.1 0.1 0.1 0.0 0.0 0.0 0.0 0.1 0.1 0.1 0.2 0.2 0.2 0.3 0.3 0.2 0.3 0.3 0.4 0.2 0.2 0.1 0.1 0.0 0.0 0.0 0.0 0.0 0.0 0.0 0.0 0.0
0.0 0.0 0.0 0.0 0.1 0.0 0.2 0.1 0.2 0.4 0.3 0.1 0.6 1.2 0.5 0.0 0.1 0.0 0.0 0.1 0.2 0.2 0.2 0.3 0.3 0.4 0.4 0.3 0.2 0.3 0.4 0.2 0.2 0.1 0.1 0.0 0.0 0.0 0.0 0.0 0.0 0.0 0.0
0.1 0.0 0.0 0.0 0.0 0.0 0.2 0.2 0.2 0.6 0.8 0.5 0.5 2.4 3.4 2.0 0.4 0.0 0.0 0.0 0.1 0.1 0.1 0.2 0.2 0.2 0.2 0.2 0.2 0.3 0.5 0.6 0.3 0.2 0.1 0.0 0.0 0.0 0.0 0.0 0.0 0.0 0.0
0.1 0.1 0.0 0.0 0.0 0.0 0.2 0.2 0.2 0.5 1.2 1.4 0.8 0.9 2.0 2.7 3.2 1.9 0.0 0.0 0.0 0.0 0.1 0.1 0.1 0.1 0.1 0.1 0.2 0.2 0.5 0.7 0.5 0.3 0.2 0.2 0.0 0.0 0.0 0.0 0.0 0.0 0.0
0.1 0.1 0.0 0.0 0.1 0.1 0.1 0.2 0.3 0.5 1.0 1.7 1.7 1.3 1.0 1.1 1.8 3.1 1.5 0.1 0.0 0.0 0.0 0.0 0.0 0.0 0.0 0.1 0.1 0.1 0.4 0.6 0.5 0.4 0.3 0.2 0.2 0.1 0.0 0.0 0.0 0.0 0.0
0.1 0.1 0.1 0.0 0.1 0.2 0.3 0.3 0.5 0.7 0.9 1.2 1.6 1.7 2.3 2.6 2.4 2.7 3.0 1.0 0.1 0.0 0.0 0.0 0.1 0.1 0.1 0.2 0.1 0.2 0.4 0.6 0.6 0.5 0.3 0.2 0.2 0.2 0.1 0.1 0.1 0.0 0.0
0.2 0.2 0.2 0.1 0.1 0.2 0.4 0.6 0.7 0.9 0.9 1.3 1.6 1.7 1.8 1.8 1.8 2.3 2.8 2.0 0.7 0.1 0.0 0.0 0.1 0.2 0.3 0.3 0.1 0.2 0.4 0.4 0.5 0.5 0.5 0.3 0.3 0.3 0.2 0.3 0.3 0.3 0.1
0.1 0.2 0.3 0.2 0.1 0.3 0.5 0.8 0.8 0.9 1.0 1.4 1.5 1.8 1.8 1.5 1.7 2.3 3.1 3.8 3.8 0.8 0.2 0.1 0.0 0.1 0.2 0.2 0.1 0.2 0.1 0.1 0.3 0.4 0.5 0.4 0.3 0.3 0.4 0.2 0.2 0.3 0.2
0.1 0.3 0.3 0.4 0.5 0.7 0.7 0.9 1.2 1.2 1.3 1.5 1.7 1.9 2.1 1.7 1.7 1.9 2.3 3.4 6.4 5.4 1.8 0.6 0.1 0.0 0.1 0.1 0.1 0.1 0.1 0.1 0.2 0.4 0.4 0.4 0.3 0.3 0.3 0.2 0.3 0.2 0.3
0.2 0.4 0.3 0.6 0.5 0.8 0.9 1.1 1.4 1.4 1.6 1.6 1.8 2.0 2.2 2.1 1.9 1.8 2.1 2.5 3.8 5.9 4.3 1.0 0.5 0.1 0.1 0.1 0.1 0.1 0.1 0.1 0.2 0.3 0.3 0.2 0.3 0.2 0.2 0.3 0.2 0.3 0.3
0.6 0.6 0.9 1.0 1.3 1.3 1.2 1.3 1.5 1.7 1.8 1.7 1.7 2.0 2.2 2.1 2.1 1.7 2.0 2.5 2.6 3.7 5.0 1.2 0.5 0.2 0.1 0.1 0.0 0.1 0.1 0.1 0.1 0.1 0.2 0.3 0.3 0.3 0.2 0.2 0.2 0.2 0.2
0.8 1.0 1.5 1.3 1.5 1.8 1.7 1.9 2.2 2.1 2.1 2.2 2.2 2.3 2.3 2.1 2.3 2.4 2.5 2.7 2.7 2.6 4.2 3.4 1.0 0.5 0.2 0.2 0.2 0.2 0.1 0.1 0.1 0.1 0.2 0.3 0.3 0.3 0.2 0.2 0.2 0.2 0.2
0.8 1.1 1.5 2.2 2.7 2.6 3.2 3.4 4.0 4.6 3.9 3.4 3.3 3.8 3.9 3.1 3.3 3.3 3.3 3.5 2.9 2.2 2.8 3.4 2.2 1.1 1.3 0.3 0.5 0.4 0.4 0.1 0.1 0.1 0.2 0.2 0.2 0.2 0.2 0.3 0.2 0.3 0.2
2.4 2.0 1.6 2.2 3.1 4.0 6.2 7.1 7.0 6.6 6.8 7.0 6.9 5.5 6.3 7.0 5.6 4.4 4.4 3.8 3.3 3.4 3.2 3.7 3.1 2.2 1.6 1.2 1.2 1.1 1.1 0.6 0.7 0.4 0.2 0.2 0.2 0.2 0.3 0.3 0.4 0.4 0.3
3.1 3.8 3.8 2.5 2.3 4.8 9.3 12.6 10.0 6.5 5.4 5.6 5.8 5.8 6.0 5.5 3.9 5.4 5.3 5.2 4.9 5.3 5.1 5.2 4.7 3.6 2.7 2.8 3.3 2.1 2.3 1.3 0.9 0.9 0.8 0.5 0.4 0.3 0.3 0.3 0.2 0.2 0.3
2.4 3.5 4.3 3.8 3.4 4.5 8.3 11.0 7.7 5.0 4.3 4.2 4.3 4.1 4.3 5.5 6.4 4.1 4.1 4.5 5.0 7.5 8.4 7.7 6.4 5.6 4.2 3.4 3.3 3.8 3.8 4.7 4.9 1.4 1.3 1.4 1.1 0.7 0.5 0.2 0.3 0.3 0.5
1.5 2.5 2.9 2.6 2.7 3.6 7.2 9.0 6.1 3.4 2.8 2.7 2.5 2.6 2.6 3.2 4.6 5.1 5.7 5.1 5.7 5.2 6.7 8.9 9.2 6.4 4.4 3.9 4.8 5.5 5.3 6.3 6.1 3.4 2.5 3.2 1.5 1.6 0.6 0.3 0.3 0.5 0.5
1.5 1.9 2.0 1.8 2.0 2.4 5.9 8.1 5.5 2.6 2.0 1.9 2.0 1.8 1.7 2.2 3.6 4.6 5.7 5.8 5.6 6.9 8.5 9.4 10.7 8.6 5.3 4.2 5.4 7.1 7.5 7.5 5.6 3.4 2.7 6.0 2.9 2.1 1.0 0.6 0.2 0.4 0.5
1.8 2.0 2.0 2.1 1.9 1.6 4.6 8.1 6.4 3.3 2.3 1.9 1.7 1.6 1.6 1.6 3.0 4.3 4.9 4.9 4.2 4.8 5.6 6.9 7.6 7.3 5.9 3.7 4.2 7.3 9.9 11.2 9.6 5.1 3.0 6.1 4.2 3.5 2.1 1.1 0.4 0.3 0.5
1.4 1.2 1.4 1.5 1.7 1.7 3.5 7.9 7.5 4.6 3.5 2.2 1.5 1.3 2.0 2.5 3.3 3.4 4.0 4.8 5.4 4.4 3.9 4.2 4.6 4.9 5.2 4.3 3.1 6.2 8.2 11.4 11.1 9.4 4.7 6.0 5.3 6.0 7.3 3.4 0.8 0.4 0.5